| time (UTC) | temp F | wind direction | speed MPH | gust MPH | rain 1hr in | rain 24hr in | rain mn in | humidity % | barometer mb |
| 20260503195354 | 56 | 200 | 4.0 | 7.0 | 0.00 | 0.00 | 0.00 | 88 | 982.6 |
| 20260503194854 | 56 | 203 | 5.0 | 8.0 | 0.00 | 0.00 | 0.00 | 88 | 982.6 |
| 20260503194354 | 56 | 231 | 5.0 | 8.0 | 0.00 | 0.00 | 0.00 | 88 | 982.7 |
| 20260503193848 | 56 | 196 | 5.0 | 9.0 | 0.00 | 0.00 | 0.00 | 87 | 982.6 |
| 20260503193348 | 56 | 211 | 5.0 | 9.0 | 0.00 | 0.00 | 0.00 | 87 | 982.5 |
| 20260503192848 | 56 | 216 | 5.0 | 9.0 | 0.00 | 0.00 | 0.00 | 87 | 982.4 |
| 20260503192351 | 56 | 251 | 5.0 | 9.0 | 0.00 | 0.00 | 0.00 | 86 | 982.4 |
| 20260503191348 | 57 | 245 | 5.0 | 10.0 | 0.00 | 0.00 | 0.00 | 85 | 982.2 |
| 20260503190848 | 57 | 214 | 5.0 | 10.0 | 0.00 | 0.00 | 0.00 | 85 | 982.1 |
| 20260503190348 | 57 | 226 | 4.0 | 8.0 | 0.00 | 0.00 | 0.00 | 84 | 982.1 |
| 20260503185848 | 57 | 208 | 4.0 | 8.0 | 0.00 | 0.00 | 0.00 | 84 | 982.1 |
| 20260503185350 | 58 | 235 | 5.0 | 9.0 | 0.00 | 0.00 | 0.00 | 83 | 982.0 |
| 20260503184849 | 58 | 217 | 5.0 | 9.0 | 0.00 | 0.00 | 0.00 | 82 | 981.8 |
| 20260503184351 | 58 | 231 | 5.0 | 9.0 | 0.00 | 0.00 | 0.00 | 82 | 981.9 |
| 20260503183849 | 58 | 210 | 5.0 | 9.0 | 0.00 | 0.00 | 0.00 | 81 | 981.9 |
| 20260503183350 | 59 | 213 | 5.0 | 9.0 | 0.00 | 0.00 | 0.00 | 80 | 981.8 |
| 20260503182851 | 59 | 226 | 5.0 | 10.0 | 0.00 | 0.00 | 0.00 | 80 | 981.7 |
| 20260503182350 | 59 | 216 | 5.0 | 10.0 | 0.00 | 0.00 | 0.00 | 79 | 981.7 |
| 20260503181844 | 60 | 201 | 5.0 | 9.0 | 0.00 | 0.00 | 0.00 | 79 | 981.7 |
| 20260503180844 | 61 | 225 | 5.0 | 8.0 | 0.00 | 0.00 | 0.00 | 77 | 981.7 |
| 20260503180347 | 61 | 225 | 5.0 | 10.0 | 0.00 | 0.00 | 0.00 | 77 | 981.7 |
| 20260503175844 | 62 | 229 | 5.0 | 10.0 | 0.00 | 0.00 | 0.00 | 76 | 981.8 |
| 20260503175344 | 62 | 221 | 6.0 | 10.0 | 0.00 | 0.00 | 0.00 | 76 | 981.7 |
| 20260503174847 | 63 | 218 | 5.0 | 10.0 | 0.00 | 0.00 | 0.00 | 75 | 981.7 |
| 20260503174345 | 63 | 214 | 4.0 | 8.0 | 0.00 | 0.00 | 0.00 | 74 | 981.6 |
| 20260503173844 | 64 | 219 | 4.0 | 7.0 | 0.00 | 0.00 | 0.00 | 73 | 981.5 |
| 20260503173345 | 64 | 214 | 4.0 | 7.0 | 0.00 | 0.00 | 0.00 | 73 | 981.7 |
| 20260503172341 | 65 | 237 | 4.0 | 7.0 | 0.00 | 0.00 | 0.00 | 72 | 981.4 |
| 20260503171843 | 65 | 191 | 4.0 | 7.0 | 0.00 | 0.00 | 0.00 | 71 | 981.4 |
| 20260503171341 | 65 | 247 | 4.0 | 8.0 | 0.00 | 0.00 | 0.00 | 70 | 981.4 |
| 20260503170840 | 66 | 273 | 5.0 | 8.0 | 0.00 | 0.00 | 0.00 | 70 | 981.3 |
| 20260503170339 | 66 | 186 | 6.0 | 11.0 | 0.00 | 0.00 | 0.00 | 69 | 981.5 |
| 20260503150822 | 70 | 275 | 3.0 | 9.0 | 0.00 | 0.00 | 0.00 | 61 | 981.6 |
| 20260503150325 | 70 | 285 | 2.0 | 9.0 | 0.00 | 0.00 | 0.00 | 61 | 981.6 |
| 20260503140314 | 69 | 274 | 5.0 | 13.0 | 0.00 | 0.00 | 0.00 | 62 | 982.6 |
| 20260503131305 | 69 | 304 | 6.0 | 12.0 | 0.00 | 0.00 | 0.00 | 59 | 982.9 |
| 20260503130805 | 69 | 279 | 6.0 | 12.0 | 0.00 | 0.00 | 0.00 | 59 | 983.0 |
| 20260503130306 | 69 | 243 | 5.0 | 12.0 | 0.00 | 0.00 | 0.00 | 59 | 983.0 |
| 20260503110253 | 66 | 34 | 3.0 | 5.0 | 0.00 | 0.00 | 0.00 | 69 | 983.2 |
| 20260503100243 | 65 | 51 | 4.0 | 5.0 | 0.00 | 0.00 | 0.00 | 75 | 983.7 |
| 20260503081205 | 59 | 64 | 3.0 | 5.0 | 0.00 | 0.00 | 0.00 | 85 | 984.0 |
| 20260503080701 | 59 | 38 | 3.0 | 4.0 | 0.00 | 0.00 | 0.00 | 85 | 984.0 |
| 20260503080202 | 59 | 74 | 3.0 | 4.0 | 0.00 | 0.00 | 0.00 | 85 | 984.0 |
| 20260503072656 | 58 | 58 | 2.0 | 4.0 | 0.00 | 0.00 | 0.00 | 86 | 984.2 |
| 20260503072156 | 58 | 59 | 2.0 | 4.0 | 0.00 | 0.00 | 0.00 | 87 | 984.2 |
| 20260503071656 | 57 | 78 | 2.0 | 3.0 | 0.00 | 0.00 | 0.00 | 88 | 984.1 |
| 20260503070152 | 57 | 44 | 2.0 | 3.0 | 0.00 | 0.00 | 0.00 | 87 | 984.3 |
| 20260503054629 | 55 | 23 | 1.0 | 2.0 | 0.00 | 0.00 | 0.00 | 90 | 984.2 |
| 20260503054127 | 55 | 57 | 1.0 | 2.0 | 0.00 | 0.00 | 0.00 | 91 | 984.2 |
| 20260503053621 | 54 | 25 | 1.0 | 2.0 | 0.00 | 0.00 | 0.00 | 90 | 984.2 |
| 20260503053117 | 54 | 355 | 0.0 | 1.0 | 0.00 | 0.00 | 0.00 | 91 | 984.2 |
| 20260503052621 | 54 | 345 | 0.0 | 2.0 | 0.00 | 0.00 | 0.00 | 91 | 984.2 |
| 20260503052116 | 54 | 25 | 1.0 | 2.0 | 0.00 | 0.00 | 0.00 | 92 | 984.1 |
| 20260503051614 | 53 | 0 | 1.0 | 2.0 | 0.00 | 0.00 | 0.00 | 92 | 984.1 |
| 20260503050609 | 53 | 265 | 1.0 | 2.0 | 0.00 | 0.00 | 0.00 | 92 | 984.0 |
| 20260503050109 | 52 | 335 | 1.0 | 2.0 | 0.00 | 0.00 | 0.00 | 93 | 984.1 |
| 20260503045609 | 52 | 299 | 0.0 | 2.0 | 0.00 | 0.00 | 0.00 | 93 | 984.0 |
| 20260503045110 | 51 | 231 | 0.0 | 0.0 | 0.00 | 0.00 | 0.00 | 92 | 984.0 |
| 20260503044609 | 51 | 237 | 0.0 | 0.0 | 0.00 | 0.00 | 0.00 | 92 | 983.9 |
| 20260503044109 | 50 | 237 | 0.0 | 0.0 | 0.00 | 0.00 | 0.00 | 92 | 984.0 |
| 20260503043609 | 49 | 237 | 0.0 | 0.0 | 0.00 | 0.00 | 0.00 | 91 | 984.0 |
| 20260503043105 | 49 | 218 | 0.0 | 0.0 | 0.00 | 0.00 | 0.00 | 93 | 983.9 |
| 20260503042604 | 49 | 207 | 0.0 | 0.0 | 0.00 | 0.00 | 0.00 | 92 | 983.9 |
| 20260503042102 | 49 | 207 | 0.0 | 0.0 | 0.00 | 0.00 | 0.00 | 92 | 983.9 |
| 20260503041603 | 49 | 221 | 0.0 | 1.0 | 0.00 | 0.00 | 0.00 | 93 | 983.8 |
| 20260503040600 | 49 | 212 | 0.0 | 1.0 | 0.00 | 0.00 | 0.00 | 92 | 983.8 |
| 20260503040100 | 49 | 212 | 0.0 | 2.0 | 0.00 | 0.00 | 0.00 | 92 | 983.8 |
| 20260503035558 | 49 | 212 | 1.0 | 2.0 | 0.00 | 0.00 | 0.00 | 92 | 983.9 |
| 20260503035057 | 49 | 240 | 0.0 | 2.0 | 0.00 | 0.00 | 0.00 | 92 | 983.9 |
| 20260503034553 | 49 | 229 | 1.0 | 2.0 | 0.00 | 0.00 | 0.00 | 90 | 983.8 |
| 20260503033554 | 51 | 239 | 1.0 | 2.0 | 0.00 | 0.00 | 0.00 | 92 | 983.9 |
| 20260503033054 | 51 | 243 | 1.0 | 2.0 | 0.00 | 0.00 | 0.00 | 92 | 983.8 |
| 20260503032555 | 51 | 213 | 1.0 | 2.0 | 0.00 | 0.00 | 0.00 | 92 | 983.9 |
| 20260503032107 | 51 | 123 | 1.0 | 1.0 | 0.00 | 0.00 | 0.00 | 93 | 983.9 |
| 20260503031553 | 50 | 166 | 1.0 | 2.0 | 0.00 | 0.00 | 0.00 | 93 | 983.8 |
| 20260503031047 | 50 | 210 | 2.0 | 3.0 | 0.00 | 0.00 | 0.00 | 93 | 983.8 |
| 20260503030544 | 49 | 207 | 2.0 | 3.0 | 0.00 | 0.00 | 0.00 | 92 | 983.9 |
| 20260503030056 | 49 | 209 | 2.0 | 3.0 | 0.00 | 0.00 | 0.00 | 90 | 983.8 |
| 20260503025543 | 49 | 226 | 2.0 | 3.0 | 0.00 | 0.00 | 0.00 | 90 | 983.9 |
| 20260503025045 | 49 | 160 | 1.0 | 3.0 | 0.00 | 0.00 | 0.00 | 90 | 983.9 |
| 20260503024540 | 49 | 214 | 0.0 | 1.0 | 0.00 | 0.00 | 0.00 | 89 | 984.0 |
| 20260503024040 | 49 | 218 | 0.0 | 1.0 | 0.00 | 0.00 | 0.00 | 90 | 983.9 |
| 20260503023539 | 49 | 218 | 1.0 | 2.0 | 0.00 | 0.00 | 0.00 | 89 | 983.8 |
| 20260503023039 | 50 | 218 | 0.0 | 2.0 | 0.00 | 0.00 | 0.00 | 89 | 983.9 |
| 20260503022539 | 51 | 181 | 1.0 | 3.0 | 0.00 | 0.00 | 0.00 | 90 | 983.8 |
| 20260503022035 | 51 | 233 | 2.0 | 3.0 | 0.00 | 0.00 | 0.00 | 91 | 984.0 |
| 20260503021535 | 51 | 229 | 1.0 | 2.0 | 0.00 | 0.00 | 0.00 | 91 | 983.9 |
| 20260503021039 | 51 | 213 | 2.0 | 3.0 | 0.00 | 0.00 | 0.00 | 91 | 983.9 |
| 20260503020535 | 51 | 224 | 2.0 | 3.0 | 0.00 | 0.00 | 0.00 | 91 | 983.8 |
| 20260503020034 | 50 | 206 | 1.0 | 2.0 | 0.00 | 0.00 | 0.00 | 90 | 983.9 |
| 20260503015537 | 50 | 208 | 1.0 | 2.0 | 0.00 | 0.00 | 0.00 | 89 | 983.9 |
| 20260503014537 | 51 | 193 | 0.0 | 2.0 | 0.00 | 0.00 | 0.00 | 89 | 983.9 |
| 20260503014033 | 51 | 220 | 0.0 | 0.0 | 0.00 | 0.00 | 0.00 | 89 | 983.9 |
| 20260503013532 | 51 | 210 | 0.0 | 1.0 | 0.00 | 0.00 | 0.00 | 89 | 983.8 |
| 20260503013032 | 52 | 152 | 0.0 | 2.0 | 0.00 | 0.00 | 0.00 | 89 | 984.0 |
| 20260503012031 | 52 | 227 | 1.0 | 3.0 | 0.00 | 0.00 | 0.00 | 89 | 984.0 |
| 20260503011532 | 52 | 215 | 1.0 | 3.0 | 0.00 | 0.00 | 0.00 | 90 | 984.0 |
| 20260503011033 | 52 | 214 | 1.0 | 3.0 | 0.00 | 0.00 | 0.00 | 89 | 984.1 |
| 20260503010532 | 52 | 207 | 1.0 | 3.0 | 0.00 | 0.00 | 0.00 | 89 | 984.1 |
| 20260503010033 | 52 | 238 | 0.0 | 2.0 | 0.00 | 0.00 | 0.00 | 89 | 984.2 |
| 20260503005532 | 52 | 207 | 1.0 | 2.0 | 0.00 | 0.00 | 0.00 | 89 | 984.2 |
| 20260503005030 | 52 | 236 | 1.0 | 2.0 | 0.00 | 0.00 | 0.00 | 89 | 984.3 |
| 20260503004531 | 52 | 241 | 1.0 | 3.0 | 0.00 | 0.00 | 0.00 | 88 | 984.3 |
| 20260503004033 | 53 | 213 | 1.0 | 3.0 | 0.00 | 0.00 | 0.00 | 88 | 984.3 |
| 20260503003534 | 53 | 217 | 1.0 | 3.0 | 0.00 | 0.00 | 0.00 | 89 | 984.3 |
| 20260503003030 | 52 | 240 | 1.0 | 3.0 | 0.00 | 0.00 | 0.00 | 88 | 984.4 |
| 20260503002532 | 52 | 229 | 1.0 | 3.0 | 0.00 | 0.00 | 0.00 | 88 | 984.4 |
| 20260503002026 | 52 | 215 | 1.0 | 2.0 | 0.00 | 0.00 | 0.00 | 87 | 984.4 |
| 20260503001527 | 52 | 210 | 1.0 | 3.0 | 0.00 | 0.00 | 0.00 | 87 | 984.6 |
| 20260503001028 | 52 | 184 | 2.0 | 3.0 | 0.00 | 0.00 | 0.00 | 87 | 984.6 |
| 20260503000527 | 52 | 227 | 2.0 | 2.0 | 0.00 | 0.00 | 0.00 | 87 | 984.6 |
| 20260503000027 | 52 | 215 | 1.0 | 2.0 | 0.00 | 0.00 | 0.00 | 87 | 984.6 |
| 20260502235028 | 52 | 226 | 0.0 | 2.0 | 0.00 | 0.00 | 0.00 | 86 | 984.7 |
| 20260502234528 | 52 | 213 | 0.0 | 3.0 | 0.00 | 0.00 | 0.00 | 86 | 984.6 |
| 20260502234022 | 52 | 224 | 1.0 | 3.0 | 0.00 | 0.00 | 0.00 | 86 | 984.7 |
| 20260502233520 | 53 | 210 | 1.0 | 3.0 | 0.00 | 0.00 | 0.00 | 85 | 984.6 |
| 20260502233020 | 53 | 217 | 1.0 | 4.0 | 0.00 | 0.00 | 0.00 | 85 | 984.8 |
| 20260502232519 | 53 | 179 | 2.0 | 4.0 | 0.00 | 0.00 | 0.00 | 85 | 984.8 |
| 20260502232022 | 53 | 235 | 3.0 | 6.0 | 0.00 | 0.00 | 0.00 | 85 | 984.8 |
| 20260502231518 | 53 | 193 | 3.0 | 6.0 | 0.00 | 0.00 | 0.00 | 84 | 984.8 |
| 20260502231018 | 53 | 245 | 3.0 | 6.0 | 0.00 | 0.00 | 0.00 | 84 | 984.7 |
| 20260502230533 | 53 | 219 | 3.0 | 6.0 | 0.00 | 0.00 | 0.00 | 83 | 984.8 |
| 20260502230021 | 53 | 191 | 4.0 | 6.0 | 0.00 | 0.00 | 0.00 | 83 | 984.8 |
| 20260502225518 | 53 | 206 | 4.0 | 6.0 | 0.00 | 0.00 | 0.00 | 83 | 984.9 |
| 20260502225018 | 53 | 203 | 4.0 | 6.0 | 0.00 | 0.00 | 0.00 | 82 | 984.9 |
| 20260502224020 | 53 | 212 | 3.0 | 6.0 | 0.00 | 0.00 | 0.00 | 81 | 984.9 |
| 20260502223515 | 54 | 239 | 3.0 | 6.0 | 0.00 | 0.00 | 0.00 | 81 | 984.9 |
| 20260502223013 | 54 | 244 | 3.0 | 8.0 | 0.00 | 0.00 | 0.00 | 80 | 984.8 |
| 20260502222514 | 54 | 212 | 4.0 | 8.0 | 0.00 | 0.00 | 0.00 | 80 | 984.8 |
| 20260502222018 | 54 | 240 | 4.0 | 7.0 | 0.00 | 0.00 | 0.00 | 79 | 984.8 |
| 20260502221515 | 54 | 208 | 4.0 | 7.0 | 0.00 | 0.00 | 0.00 | 79 | 984.8 |
| 20260502221015 | 54 | 210 | 5.0 | 7.0 | 0.00 | 0.00 | 0.00 | 79 | 984.8 |
| 20260502220012 | 55 | 209 | 4.0 | 8.0 | 0.00 | 0.00 | 0.00 | 78 | 984.7 |
| 20260502215512 | 55 | 218 | 5.0 | 8.0 | 0.00 | 0.00 | 0.00 | 77 | 984.8 |
| 20260502215007 | 55 | 204 | 5.0 | 8.0 | 0.00 | 0.00 | 0.00 | 77 | 984.9 |
| 20260502214009 | 55 | 216 | 5.0 | 8.0 | 0.00 | 0.00 | 0.00 | 77 | 984.8 |
| 20260502213507 | 55 | 212 | 6.0 | 8.0 | 0.00 | 0.00 | 0.00 | 77 | 984.9 |
| 20260502213009 | 55 | 208 | 6.0 | 7.0 | 0.00 | 0.00 | 0.00 | 77 | 984.8 |
| 20260502212510 | 55 | 205 | 4.0 | 7.0 | 0.00 | 0.00 | 0.00 | 77 | 984.8 |
| 20260502212011 | 55 | 184 | 4.0 | 7.0 | 0.00 | 0.00 | 0.00 | 77 | 984.7 |
| 20260502211005 | 55 | 219 | 5.0 | 8.0 | 0.00 | 0.00 | 0.00 | 77 | 984.8 |
| 20260502210005 | 56 | 217 | 5.0 | 8.0 | 0.00 | 0.00 | 0.00 | 76 | 984.8 |
| 20260502205507 | 56 | 196 | 6.0 | 9.0 | 0.00 | 0.00 | 0.00 | 76 | 984.8 |
| 20260502205006 | 56 | 188 | 5.0 | 9.0 | 0.00 | 0.00 | 0.00 | 75 | 984.9 |
| 20260502204505 | 56 | 214 | 4.0 | 7.0 | 0.00 | 0.00 | 0.00 | 74 | 984.8 |
| 20260502204007 | 56 | 207 | 4.0 | 7.0 | 0.00 | 0.00 | 0.00 | 74 | 984.8 |
| 20260502203504 | 56 | 224 | 4.0 | 7.0 | 0.00 | 0.00 | 0.00 | 73 | 984.9 |
| 20260502203004 | 56 | 219 | 4.0 | 7.0 | 0.00 | 0.00 | 0.00 | 70 | 984.9 |
| 20260502202004 | 57 | 238 | 4.0 | 7.0 | 0.00 | 0.00 | 0.00 | 68 | 985.0 |
| 20260502201506 | 57 | 216 | 4.0 | 7.0 | 0.00 | 0.00 | 0.00 | 66 | 985.0 |
| 20260502201004 | 57 | 218 | 3.0 | 7.0 | 0.00 | 0.00 | 0.00 | 66 | 984.9 |
| 20260502200506 | 58 | 156 | 2.0 | 4.0 | 0.00 | 0.00 | 0.00 | 65 | 984.9 |